When you browse on this site, cookies collect data to enhance your experience and personalize the content and advertising you see.
Visit our Privacy Policy to learn more. By continuing to use the site, you agree to this use of cookies and data.
  • In Germany
  • List of Countries
  • For 7 days
  • Water Temperature
  • Weather Map
  • Weather Widgets
  • user-avatar
    Login

    Hourly Weather Monastyrka

    Today, 25 February, Tuesday

    Time Temperature Precipitation Wind Pressure Humidity
    00:00 -10°C° 0 mm 5 mps 742 mmHg 90%
    01:00 -11°C° 0 mm 5 mps 742 mmHg 90%
    02:00 -10°C° 0 mm 4 mps 743 mmHg 91%
    03:00 -11°C° 0 mm 4 mps 743 mmHg 92%
    04:00 -12°C° 0 mm 3 mps 743 mmHg 92%
    05:00 -13°C° 0 mm 3 mps 744 mmHg 93%
    06:00 -13°C° 0 mm 3 mps 744 mmHg 93%
    07:00 -13°C° 0 mm 3 mps 744 mmHg 93%
    08:00 -12°C° 0 mm 3 mps 744 mmHg 92%
    09:00 -9°C° 0 mm 3 mps 744 mmHg 92%
    10:00 -7°C° 0 mm 2 mps 745 mmHg 91%
    11:00 -7°C° 0 mm 3 mps 745 mmHg 91%
    12:00 -7°C° 0 mm 3 mps 745 mmHg 91%
    13:00 -6°C° 0 mm 3 mps 745 mmHg 91%
    14:00 -7°C° 0 mm 3 mps 744 mmHg 92%
    15:00 -7°C° 0 mm 3 mps 744 mmHg 93%
    16:00 -7°C° 0 mm 3 mps 744 mmHg 94%
    17:00 -9°C° 0 mm 4 mps 744 mmHg 94%
    18:00 -10°C° 0 mm 4 mps 744 mmHg 95%
    19:00 -11°C° 0 mm 4 mps 744 mmHg 96%
    20:00 -11°C° 0 mm 4 mps 743 mmHg 96%
    21:00 -12°C° 0 mm 4 mps 743 mmHg 95%
    22:00 -12°C° 0 mm 4 mps 743 mmHg 95%
    23:00 -12°C° 0 mm 4 mps 742 mmHg 95%

    Tomorrow, 26 February, Wednesday

    Time Temperature Precipitation Wind Pressure Humidity
    00:00 -11°C° 0 mm 4 mps 742 mmHg 95%
    01:00 -12°C° 0 mm 5 mps 741 mmHg 95%
    02:00 -11°C° 0 mm 4 mps 741 mmHg 95%
    03:00 -10°C° 0 mm 4 mps 740 mmHg 95%
    04:00 -10°C° 0 mm 4 mps 739 mmHg 95%
    05:00 -10°C° 0 mm 4 mps 738 mmHg 95%
    06:00 -9°C° 0 mm 4 mps 737 mmHg 95%
    07:00 -8°C° 0 mm 4 mps 737 mmHg 95%
    08:00 -8°C° 0.2 mm 5 mps 736 mmHg 95%
    09:00 -7°C° 0.2 mm 5 mps 735 mmHg 95%
    10:00 -8°C° 0.2 mm 6 mps 734 mmHg 96%
    11:00 -5°C° 1 mm 6 mps 733 mmHg 96%
    12:00 -4°C° 1 mm 6 mps 732 mmHg 97%
    13:00 -3°C° 1 mm 6 mps 731 mmHg 98%
    14:00 -4°C° 1.3 mm 5 mps 731 mmHg 98%
    15:00 -3°C° 1.3 mm 4 mps 730 mmHg 97%
    16:00 -2°C° 1.3 mm 3 mps 729 mmHg 97%
    17:00 -4°C° 0.6 mm 3 mps 729 mmHg 97%
    18:00 -4°C° 0.6 mm 3 mps 728 mmHg 97%
    19:00 -4°C° 0.6 mm 3 mps 728 mmHg 97%
    20:00 -4°C° 0.5 mm 3 mps 728 mmHg 97%
    21:00 -4°C° 0.5 mm 4 mps 728 mmHg 96%
    22:00 -5°C° 0.5 mm 4 mps 728 mmHg 96%
    23:00 -6°C° 0.4 mm 5 mps 729 mmHg 95%

    Day after tomorrow, 27 February, Thursday

    Time Temperature Precipitation Wind Pressure Humidity
    00:00 -6°C° 0.4 mm 6 mps 729 mmHg 95%
    01:00 -7°C° 0.4 mm 7 mps 730 mmHg 94%
    02:00 -7°C° 0.1 mm 7 mps 730 mmHg 91%
    03:00 -7°C° 0.1 mm 7 mps 731 mmHg 89%
    04:00 -7°C° 0.1 mm 7 mps 732 mmHg 87%
    05:00 -7°C° 0 mm 7 mps 733 mmHg 86%
    06:00 -6°C° 0 mm 8 mps 734 mmHg 85%
    07:00 -5°C° 0 mm 8 mps 735 mmHg 85%
    08:00 -6°C° 0 mm 8 mps 736 mmHg 83%
    09:00 -7°C° 0 mm 7 mps 737 mmHg 82%
    10:00 -7°C° 0 mm 7 mps 738 mmHg 81%
    11:00 -7°C° 0 mm 7 mps 739 mmHg 80%
    12:00 -5°C° 0 mm 6 mps 740 mmHg 80%
    13:00 -5°C° 0 mm 6 mps 741 mmHg 80%
    14:00 -5°C° 0 mm 5 mps 741 mmHg 80%
    15:00 -4°C° 0 mm 4 mps 742 mmHg 80%
    16:00 -4°C° 0 mm 3 mps 742 mmHg 80%
    17:00 -3°C° 0 mm 4 mps 742 mmHg 83%
    18:00 -3°C° 0 mm 4 mps 743 mmHg 86%
    19:00 -3°C° 0 mm 4 mps 743 mmHg 89%
    20:00 -3°C° 0 mm 4 mps 744 mmHg 89%
    21:00 -4°C° 0 mm 4 mps 744 mmHg 89%
    22:00 -4°C° 0 mm 3 mps 744 mmHg 88%
    23:00 -4°C° 0 mm 3 mps 745 mmHg 89%

    28 February, Friday

    Time Temperature Precipitation Wind Pressure Humidity
    00:00 -4°C° 0 mm 3 mps 745 mmHg 89%
    01:00 -2°C° 0 mm 3 mps 745 mmHg 90%
    02:00 -3°C° 0 mm 4 mps 745 mmHg 89%
    03:00 -3°C° 0 mm 4 mps 746 mmHg 89%
    04:00 -2°C° 0 mm 4 mps 746 mmHg 89%
    05:00 -2°C° 0.2 mm 5 mps 746 mmHg 89%
    06:00 -2°C° 0.2 mm 5 mps 746 mmHg 90%
    07:00 -2°C° 0.2 mm 5 mps 746 mmHg 90%
    08:00 -2°C° 0 mm 5 mps 746 mmHg 90%
    09:00 -1°C° 0 mm 5 mps 746 mmHg 90%
    10:00 -2°C° 0 mm 6 mps 746 mmHg 91%
    11:00 -1°C° 0 mm 5 mps 746 mmHg 93%
    12:00 -1°C° 0 mm 5 mps 746 mmHg 94%
    13:00 -1°C° 0 mm 5 mps 746 mmHg 96%
    14:00 -1°C° 0 mm 4 mps 747 mmHg 95%
    15:00 -1°C° 0 mm 4 mps 747 mmHg 94%
    16:00 -1°C° 0 mm 4 mps 747 mmHg 93%
    17:00 -1°C° 0 mm 4 mps 747 mmHg 92%
    18:00 -2°C° 0 mm 4 mps 748 mmHg 91%
    19:00 -1°C° 0 mm 3 mps 748 mmHg 90%
    20:00 -2°C° 0 mm 4 mps 748 mmHg 90%
    21:00 -2°C° 0 mm 4 mps 748 mmHg 90%
    22:00 -2°C° 0 mm 4 mps 748 mmHg 89%
    23:00 -3°C° 0 mm 4 mps 748 mmHg 89%

    29 February, Saturday

    Time Temperature Precipitation Wind Pressure Humidity
    00:00 -3°C° 0 mm 4 mps 748 mmHg 88%
    01:00 -3°C° 0 mm 4 mps 748 mmHg 87%
    02:00 -4°C° 0 mm 4 mps 748 mmHg 87%
    03:00 -4°C° 0 mm 4 mps 748 mmHg 86%
    04:00 -5°C° 0 mm 5 mps 748 mmHg 86%
    05:00 -6°C° 0 mm 5 mps 748 mmHg 84%
    06:00 -6°C° 0 mm 6 mps 748 mmHg 82%
    07:00 -6°C° 0 mm 6 mps 747 mmHg 80%
    08:00 -6°C° 0 mm 6 mps 747 mmHg 79%
    09:00 -6°C° 0 mm 7 mps 747 mmHg 78%
    10:00 -6°C° 0 mm 7 mps 747 mmHg 77%
    11:00 -6°C° 0 mm 7 mps 747 mmHg 77%
    12:00 -6°C° 0 mm 7 mps 746 mmHg 77%
    13:00 -6°C° 0 mm 7 mps 746 mmHg 77%
    14:00 -6°C° 0 mm 7 mps 746 mmHg 78%
    15:00 -6°C° 0 mm 7 mps 746 mmHg 78%
    16:00 -7°C° 0 mm 7 mps 746 mmHg 79%
    17:00 -7°C° 0 mm 7 mps 745 mmHg 81%
    18:00 -8°C° 0 mm 6 mps 745 mmHg 84%
    19:00 -9°C° 0 mm 6 mps 745 mmHg 86%
    20:00 -9°C° 0 mm 6 mps 744 mmHg 88%
    21:00 -8°C° 0 mm 6 mps 744 mmHg 89%
    22:00 -8°C° 0 mm 6 mps 744 mmHg 91%
    23:00 -8°C° 0 mm 6 mps 744 mmHg 91%

    1 March, Sunday

    Time Temperature Precipitation Wind Pressure Humidity
    00:00 -7°C° 0 mm 5 mps 744 mmHg 92%
    01:00 -7°C° 0 mm 5 mps 744 mmHg 92%
    02:00 -7°C° 0 mm 5 mps 744 mmHg 93%
    03:00 -8°C° 0 mm 4 mps 744 mmHg 93%
    04:00 -9°C° 0 mm 4 mps 744 mmHg 93%
    05:00 -8°C° 0 mm 3 mps 744 mmHg 94%
    06:00 -9°C° 0 mm 3 mps 744 mmHg 94%
    07:00 -10°C° 0 mm 3 mps 745 mmHg 94%
    08:00 -9°C° 0 mm 3 mps 745 mmHg 93%
    09:00 -6°C° 0 mm 2 mps 745 mmHg 92%
    10:00 -5°C° 0 mm 2 mps 745 mmHg 91%
    11:00 -4°C° 0 mm 2 mps 745 mmHg 92%
    12:00 -3°C° 0 mm 2 mps 745 mmHg 93%
    13:00 -2°C° 0 mm 3 mps 746 mmHg 94%
    14:00 -2°C° 0 mm 2 mps 746 mmHg 94%
    15:00 -2°C° 0 mm 2 mps 746 mmHg 94%
    16:00 -2°C° 0 mm 2 mps 746 mmHg 94%
    17:00 -2°C° 0 mm 2 mps 746 mmHg 94%
    18:00 -2°C° 0 mm 2 mps 746 mmHg 94%
    19:00 -3°C° 0 mm 2 mps 746 mmHg 93%
    20:00 -1°C° 0 mm 1 mps 746 mmHg 94%
    21:00 -1°C° 0 mm 1 mps 746 mmHg 94%
    22:00 -1°C° 0 mm 1 mps 746 mmHg 94%
    23:00 -1°C° 0 mm 1 mps 746 mmHg 95%
    Show more